Weather in Aleksandrovka

Russia / Omsk Oblast     54°33′32″N   72°45′14″E
temp.,
°C
wind,
m/s
gust,
m/s
humid.,
%
clouds,
%
prec.,
mm/h
press.,
hPa
HPBL,
m
30 june, thu
thu3000:00+8w8138624 0.4 997689
03:00+8w91689100 0.3 997684
06:00+8w91584100 0.3 998745
09:00+10w81375100 0.0 9991035
12:00+15wnw91258100 0.1 10001726
15:00+17wnw911476 0.0 10022070
18:00+17wnw711535 0.0 10032099
21:00+14wnw612660 0.0 1004462
1 july, fri
fri100:00+11w514801 0.0 1005347
03:00+10w613785 0.0 1005364
06:00+10w71574100 0.0 1006523
09:00+10wnw61377100 0.2 1007511
12:00+14wnw8126692 0.2 1008799
15:00+14wnw61175100 0.0 1009653
18:00+15nw6117397 0.0 1010660
21:00+14wnw478132 0.0 1010198
2 july, sat
sat200:00+11wnw368497 0.0 1011157
03:00+12w3784100 0.0 1011202
06:00+12w3685100 0.0 1011202
09:00+14wnw457791 0.0 1011393
12:00+18w456279 0.5 10101065
15:00+17nw4567100 1.1 1010679
18:00+19nw345573 1.1 10101314
21:00+16nw337673 0.2 101053
3 july, sun
sun300:00+13wnw228437 0.2 101013
03:00+11nw22895 0.0 100911
06:00+12wnw11865 0.0 100911
09:00+16wnw12685 0.0 1008473
12:00+20wsw11565 0.7 10071334
15:00+21sse215174 0.8 10061706
18:00+20ne215499 0.8 1005803
21:00+17ene356999 0.0 100499
4 july, mon
mon400:00+15e3772100 0.0 1003154
03:00+14ene357699 0.0 100189
06:00+13ene3583100 0.0 1000114
09:00+15ne3679100 0.1 1000255
12:00+18ne4666100 0.1 999617
15:00+20ene5652100 0.0 9991300
18:00+20ne4553100 0.0 9991127
21:00+16n3571100 0.1 100176